Location: Unspecified
(0.0000°N, 0.0000°E)
Time: 12:25:30
(UTC+00:00)

X-37B - Pass Details

Date: 11 August 2021
Orbit: 381 x 393 km, 45.0° (Epoch: 29 August)

Event Time Altitude Azimuth Distance (km) Brightness Sun altitude
Rises 19:51:39 0° 229° (SW) 2,273 4.9 -25.6°
Reaches altitude 10° 19:53:45 10° 234° (SW) 1,414 3.9 -26.2°
Enters shadow 19:54:15 14° 237° (WSW) 1,219 3.5 -26.3°
